User: anonymous   Login
Location: Unspecified
(0.0000°N, 0.0000°E)
Time: 17:49:38
(UTC+00:00)
Language:

GSAT 18 - Orbit

View from above orbital plane
View from above orbital plane
View from above satellite
View from above satellite

Ground track
Ground track

The orbit data is extracted from the following two-line orbital elements,

1 41793U 16060A   19079.87950774 -.00000103 +00000-0 +00000-0 0  9995
2 41793 000.0402 104.9000 0000798 267.9078 195.8920 01.00271863009011
Epoch (UTC): 20 March 2019 21:06:29
Eccentricity: 0.0000798
inclination: 0.0402°
perigee height: 35783 km
apogee height: 35789 km
right ascension of ascending node: 104.9000°
argument of perigee: 267.9078°
revolutions per day: 1.00271863
mean anomaly at epoch: 195.8920°
orbit number at epoch: 901

The dashed part of the orbit path shows where the satellite is in the earth's shadow,  

DLR